User: anonymous   Login
Location: Corralito
(10.2667°N, 66.9500°W)
Time: 05:28:42
(UTC+00:00)
Language:

GPS 2-15 Rocket1 - Orbit

View from above orbital plane
View from above orbital plane
View from above satellite
View from above satellite

Ground track
Ground track

The orbit data is extracted from the following two-line orbital elements,

1 22109U 92058B   24109.52245685  .00004719  00000-0  60510-3 0  9997
2 22109  19.7817 202.8416 0034356 258.5774 101.0778 14.76348849699250
Epoch (UTC): 18 April 2024 12:32:20
Eccentricity: 0.0034356
inclination: 19.7817°
perigee height: 617 km
apogee height: 665 km
right ascension of ascending node: 202.8416°
argument of perigee: 258.5774°
revolutions per day: 14.76348849
mean anomaly at epoch: 101.0778°
orbit number at epoch: 69925

The dashed part of the orbit path shows where the satellite is in the earth's shadow,  

DLR